BEIDOU-3 IGSO-1 (C38)

Last updated on Sat Aug 15 2026 00:03:26 GMT+0000 (Coordinated Universal Time)

1 44204U 19023A 26226.37759390 -.00000206 00000+0 00000+0 0 9997 2 44204 58.7793 37.0520 0026722 223.2479 317.8889 1.00274675 7799
UTC large
Height (km)
Speed (km/s)
/
Latitude / Longitude
Inclination (degrees)
Orbital Period (minutes)
Azimuth
Elevation
Range (km)
Doppler Factor

Next 0 passes for location: London (51.5072 / 0.1276)

No passes found over London.
BEIDOU-3 IGSO-1 (C38)